N5PRN Weather Reports


Display with metric or nautical units.
time (UTC)temp
F
wind
direction
speed
MPH
gust
MPH
rain 1hr
in
rain 24hr
in
rain mn
in
humidity
%
barometer
mb
20260504202250 78 225 3.0 3.0 0.00 0.00 0.00 55 1013.5
20260504201747 79 260 3.0 5.0 0.00 0.00 0.00 53 1013.8
20260504201244 78 198 1.0 1.0 0.00 0.00 0.00 54 1014.0
20260504200742 78 278 1.0 2.0 0.00 0.00 0.00 59 1014.0
20260504200238 77 188 2.0 3.0 0.00 0.00 0.00 57 1014.2
20260504195735 77 243 4.0 5.0 0.00 0.00 0.00 54 1014.2
20260504195230 78 156 2.0 3.0 0.00 0.00 0.00 54 1014.4
20260504194728 77 231 1.0 2.0 0.00 0.00 0.00 56 1014.4
20260504194224 77 211 2.0 2.0 0.00 0.00 0.00 55 1014.5
20260504193720 78 190 5.0 8.0 0.00 0.00 0.00 52 1014.4
20260504193218 78 234 5.0 7.0 0.00 0.00 0.00 51 1014.5
20260504192716 77 221 1.0 1.0 0.00 0.00 0.00 53 1014.6
20260504192214 76 181 5.0 7.0 0.00 0.00 0.00 56 1014.7
20260504191712 77 235 6.0 7.0 0.00 0.00 0.00 51 1014.9
20260504191209 78 235 1.0 1.0 0.00 0.00 0.00 52 1014.8
20260504190704 77 216 3.0 5.0 0.00 0.00 0.00 50 1015.0
20260504190201 76 181 2.0 2.0 0.00 0.00 0.00 50 1015.2
20260504185657 77 252 3.0 3.0 0.00 0.00 0.00 52 1015.1
20260504185153 77 174 5.0 6.0 0.00 0.00 0.00 50 1015.3
20260504184650 76 182 4.0 5.0 0.00 0.00 0.00 49 1015.3
20260504184145 76 161 3.0 5.0 0.00 0.00 0.00 50 1015.5
20260504183642 75 230 9.0 13.0 0.00 0.00 0.00 47 1015.6
20260504183139 76 208 5.0 6.0 0.00 0.00 0.00 48 1015.7
20260504182637 75 146 5.0 6.0 0.00 0.00 0.00 49 1015.6
20260504182134 76 204 8.0 11.0 0.00 0.00 0.00 49 1015.6
20260504181632 76 146 3.0 3.0 0.00 0.00 0.00 51 1015.8
20260504181129 76 177 1.0 2.0 0.00 0.00 0.00 50 1015.6
20260504180629 76 143 3.0 5.0 0.00 0.00 0.00 52 1015.7
20260504180127 76 177 3.0 3.0 0.00 0.00 0.00 50 1015.9
20260504175623 75 160 2.0 5.0 0.00 0.00 0.00 50 1015.8
20260504175120 76 176 2.0 2.0 0.00 0.00 0.00 53 1015.8
20260504174619 74 195 1.0 2.0 0.00 0.00 0.00 53 1016.0
20260504174114 75 225 8.0 10.0 0.00 0.00 0.00 50 1016.1
20260504173612 75 243 1.0 2.0 0.00 0.00 0.00 55 1016.1
20260504173109 75 144 6.0 6.0 0.00 0.00 0.00 51 1016.1
20260504172605 75 215 5.0 6.0 0.00 0.00 0.00 51 1016.0
20260504172102 74 248 3.0 3.0 0.00 0.00 0.00 52 1016.4
20260504171558 75 193 3.0 6.0 0.00 0.00 0.00 52 1016.4
20260504171056 75 149 3.0 3.0 0.00 0.00 0.00 51 1016.5
20260504170551 74 183 4.0 6.0 0.00 0.00 0.00 52 1016.7
20260504150936 72 196 2.0 2.0 0.00 0.00 0.00 62 1017.0
20260504150432 71 238 3.0 5.0 0.00 0.00 0.00 66 1016.9
20260504140859 65 190 2.0 3.0 0.00 0.00 0.00 78 1017.5
20260504140354 65 226 4.0 6.0 0.00 0.00 0.00 78 1017.4
20260504130818 55 217 0.0 0.0 0.00 0.00 0.00 99 1017.3
20260504130314 55 213 0.0 0.0 0.00 0.00 0.00 99 1017.2
20260504120237 50 231 0.0 0.0 0.00 0.00 0.00 99 1016.9
20260504110705 50 145 0.0 0.0 0.00 0.00 0.00 99 1016.7
20260504110201 50 145 0.0 0.0 0.00 0.00 0.00 99 1016.6
20260504100119 51 145 0.0 0.0 0.00 0.00 0.00 99 1016.3
20260504081512 53 144 0.0 0.0 0.00 0.00 0.00 99 1016.6
20260504081008 53 144 0.0 0.0 0.00 0.00 0.00 99 1016.7
20260504080504 53 144 0.0 0.0 0.00 0.00 0.00 99 1017.0
20260504050317 56 158 0.0 0.0 0.00 0.00 0.00 99 1017.7
20260504045808 56 170 0.0 0.0 0.00 0.00 0.00 99 1017.9
20260504045304 56 170 0.0 0.0 0.00 0.00 0.00 99 1018.0
20260504044800 56 170 0.0 0.0 0.00 0.00 0.00 99 1018.0
20260504044258 56 183 0.0 0.0 0.00 0.00 0.00 99 1018.1
20260504043755 56 183 0.0 0.0 0.00 0.00 0.00 99 1018.2
20260504043251 56 224 0.0 0.0 0.00 0.00 0.00 99 1018.1
20260504042750 57 224 0.0 0.0 0.00 0.00 0.00 99 1018.2
20260504042245 56 224 0.0 0.0 0.00 0.00 0.00 99 1018.1
20260504041742 57 224 0.0 0.0 0.00 0.00 0.00 98 1018.1
20260504041238 57 224 0.0 0.0 0.00 0.00 0.00 99 1018.2
20260504040734 57 224 0.0 0.0 0.00 0.00 0.00 98 1018.2
20260504040232 57 224 0.0 0.0 0.00 0.00 0.00 99 1018.2
20260504035728 57 224 0.0 0.0 0.00 0.00 0.00 98 1018.3
20260504035225 57 224 0.0 0.0 0.00 0.00 0.00 98 1018.3
20260504034723 57 224 0.0 0.0 0.00 0.00 0.00 97 1018.1
20260504034220 58 224 0.0 0.0 0.00 0.00 0.00 97 1018.0
20260504033718 58 224 0.0 0.0 0.00 0.00 0.00 97 1018.2
20260504033214 58 224 0.0 0.0 0.00 0.00 0.00 97 1018.4
20260504032711 58 224 0.0 0.0 0.00 0.00 0.00 96 1018.4
20260504032203 58 224 0.0 0.0 0.00 0.00 0.00 96 1018.4
20260504031659 58 224 0.0 0.0 0.00 0.00 0.00 97 1018.3
20260504031155 58 224 0.0 0.0 0.00 0.00 0.00 96 1018.4
20260504030652 58 224 0.0 0.0 0.00 0.00 0.00 96 1018.1
20260504030149 58 224 0.0 0.0 0.00 0.00 0.00 95 1018.1
20260504025645 58 224 0.0 0.0 0.00 0.00 0.00 95 1018.1
20260504025142 59 224 0.0 0.0 0.00 0.00 0.00 94 1018.2
20260504024634 59 224 0.0 0.0 0.00 0.00 0.00 94 1017.9
20260504024130 59 224 0.0 0.0 0.00 0.00 0.00 94 1018.1
20260504023621 59 224 0.0 0.0 0.00 0.00 0.00 93 1017.9
20260504023117 59 224 0.0 0.0 0.00 0.00 0.00 92 1018.0
20260504022614 60 224 0.0 0.0 0.00 0.00 0.00 92 1018.2
20260504022110 60 224 0.0 0.0 0.00 0.00 0.00 91 1017.6
20260504021608 60 224 0.0 0.0 0.00 0.00 0.00 91 1017.8
20260504021104 60 224 0.0 0.0 0.00 0.00 0.00 90 1017.8
20260504020602 61 224 0.0 0.0 0.00 0.00 0.00 90 1017.7
20260504020057 61 224 0.0 0.0 0.00 0.00 0.00 89 1017.7
20260504015554 61 224 0.0 0.0 0.00 0.00 0.00 89 1017.5
20260504015050 61 224 0.0 0.0 0.00 0.00 0.00 88 1017.5
20260504014546 62 224 0.0 0.0 0.00 0.00 0.00 88 1017.4
20260504014044 62 224 0.0 0.0 0.00 0.00 0.00 87 1017.6
20260504013541 62 224 0.0 0.0 0.00 0.00 0.00 86 1017.4
20260504013038 63 224 0.0 0.0 0.00 0.00 0.00 86 1017.2
20260504012535 63 224 0.0 0.0 0.00 0.00 0.00 85 1017.3
20260504012033 63 224 0.0 0.0 0.00 0.00 0.00 83 1017.3
20260504011529 64 224 0.0 0.0 0.00 0.00 0.00 82 1017.3
20260504011025 64 224 0.0 0.0 0.00 0.00 0.00 82 1017.0
20260504010516 65 234 0.0 0.0 0.00 0.00 0.00 80 1017.2
20260504010012 65 234 0.0 0.0 0.00 0.00 0.00 78 1017.1
20260504005509 66 234 0.0 0.0 0.00 0.00 0.00 77 1017.1
20260504005006 66 234 0.0 0.0 0.00 0.00 0.00 75 1017.3
20260504004504 67 234 0.0 0.0 0.00 0.00 0.00 75 1017.0
20260504004001 67 235 0.0 0.0 0.00 0.00 0.00 75 1016.7
20260504003457 68 235 0.0 0.0 0.00 0.00 0.00 72 1017.0
20260504002954 68 235 0.0 0.0 0.00 0.00 0.00 72 1016.9
20260504002451 69 235 0.0 0.0 0.00 0.00 0.00 68 1017.1
20260504001948 69 235 0.0 0.0 0.00 0.00 0.00 68 1017.1
20260504001445 70 235 0.0 0.0 0.00 0.00 0.00 69 1017.0
20260504000942 70 235 0.0 0.0 0.00 0.00 0.00 66 1016.9
20260504000439 71 235 0.0 0.0 0.00 0.00 0.00 64 1017.0
20260503235937 71 235 0.0 0.0 0.00 0.00 0.00 61 1017.1
20260503235434 72 233 0.0 0.0 0.00 0.00 0.00 61 1017.2
20260503234931 72 230 0.0 0.0 0.00 0.00 0.00 59 1017.3
20260503234429 72 231 0.0 0.0 0.00 0.00 0.00 61 1017.3
20260503233927 73 239 0.0 0.0 0.00 0.00 0.00 61 1017.3
20260503233423 73 239 0.0 0.0 0.00 0.00 0.00 59 1017.2
20260503232919 73 238 0.0 0.0 0.00 0.00 0.00 58 1017.1
20260503232417 74 238 0.0 0.0 0.00 0.00 0.00 58 1017.2
20260503231914 75 238 0.0 0.0 0.00 0.00 0.00 56 1017.5
20260503231412 75 233 0.0 0.0 0.00 0.00 0.00 53 1017.2
20260503230908 76 234 0.0 0.0 0.00 0.00 0.00 48 1017.4
20260503230404 76 242 0.0 0.0 0.00 0.00 0.00 53 1017.3
20260503225902 77 244 0.0 0.0 0.00 0.00 0.00 48 1017.5
20260503225357 77 255 0.0 0.0 0.00 0.00 0.00 48 1017.5
20260503224854 78 210 1.0 1.0 0.00 0.00 0.00 44 1017.5
20260503224351 78 234 1.0 1.0 0.00 0.00 0.00 47 1017.6
20260503223849 80 221 0.0 0.0 0.00 0.00 0.00 47 1017.7
20260503223346 80 257 0.0 0.0 0.00 0.00 0.00 43 1017.5
20260503222841 79 91 0.0 1.0 0.00 0.00 0.00 43 1017.8
20260503222341 79 270 1.0 1.0 0.00 0.00 0.00 47 1017.6
20260503221838 80 278 0.0 0.0 0.00 0.00 0.00 48 1017.7
20260503221337 81 12 2.0 3.0 0.00 0.00 0.00 42 1017.9
20260503220832 80 270 1.0 1.0 0.00 0.00 0.00 47 1017.8
20260503220330 80 272 0.0 0.0 0.00 0.00 0.00 41 1017.8
20260503215827 78 253 0.0 0.0 0.00 0.00 0.00 46 1017.7
20260503215324 79 199 2.0 2.0 0.00 0.00 0.00 43 1017.8
20260503214821 77 145 1.0 2.0 0.00 0.00 0.00 46 1018.1
20260503214319 76 255 0.0 0.0 0.00 0.00 0.00 59 1018.2
20260503213816 77 276 0.0 0.0 0.00 0.00 0.00 51 1018.2
20260503213313 78 272 0.0 0.0 0.00 0.00 0.00 48 1018.2
20260503212809 80 247 0.0 0.0 0.00 0.00 0.00 44 1018.0
20260503212307 82 189 2.0 2.0 0.00 0.00 0.00 44 1018.1
20260503211800 80 286 0.0 1.0 0.00 0.00 0.00 41 1018.4
20260503211256 80 51 1.0 2.0 0.00 0.00 0.00 41 1018.4
20260503210755 79 258 1.0 1.0 0.00 0.00 0.00 42 1018.4
20260503210253 79 204 1.0 1.0 0.00 0.00 0.00 41 1018.5
20260503205748 79 217 1.0 2.0 0.00 0.00 0.00 47 1018.6
20260503205245 77 228 1.0 1.0 0.00 0.00 0.00 48 1018.8
20260503204742 78 226 1.0 1.0 0.00 0.00 0.00 44 1018.9
20260503204239 79 258 0.0 0.0 0.00 0.00 0.00 42 1018.8
20260503203736 78 320 3.0 3.0 0.00 0.00 0.00 45 1018.7
20260503203234 77 268 2.0 2.0 0.00 0.00 0.00 48 1019.3
20260503202731 78 238 0.0 0.0 0.00 0.00 0.00 44 1019.1